Torna al catalogo

CZ-3B DEB

AttivoGTO
NORAD 40169·DEBRIS·🇨🇳 China

Lanciato Sep 4, 2010 da Xichang Satellite Launch Center

Loading…

TLE

ObsoletoSource: Space-Track

Epoca: Sep 11, 2026, 10:39 UTC

1 40169U 10042W   26254.44443708  .00000243  00000-0  00000-0 0  9999
2 40169  25.6608 214.0575 7236718  74.6312  13.0150  1.93992353 99473

Traccia CZ-3B DEB in tempo reale con AllMySat

Download on the App Store